AAM015 SEQM-SEGU

Flight info

Callsign AAM015
Flight time 0h 32m
Altitude 24000
Route TEMOX3A TEMOX TEMOX2
Aircraft B738/M-SDGIJ1LRWY/SB1

Departure

Time 2026-04-14 05:45
Airport Mariscal Sucre International Airport (SEQM)

Arrival

Time 2026-04-14 06:17
Airport José Joaquín de Olmedo International Airport (SEGU)
Time Latitude Longitude Altitude Speed Heading
2026-04-14 05:12 -0.12376 -78.35936 7855 ft 0 kts 266°
2026-04-14 05:31 -0.12378 -78.35928 7855 ft 2 kts 295°
2026-04-14 05:31 -0.12385 -78.35915 7857 ft 2 kts 299°
2026-04-14 05:31 -0.12390 -78.35903 7858 ft 2 kts 269°
2026-04-14 05:31 -0.12388 -78.35888 7859 ft 2 kts 266°
2026-04-14 05:32 -0.12387 -78.35873 7860 ft 2 kts 267°
2026-04-14 05:32 -0.12387 -78.35860 7861 ft 0 kts 266°
2026-04-14 05:32 -0.12385 -78.35848 7862 ft 2 kts 246°
2026-04-14 05:32 -0.12376 -78.35837 7862 ft 2 kts 215°
2026-04-14 05:33 -0.12362 -78.35832 7862 ft 1 kts 185°
2026-04-14 05:33 -0.12356 -78.35832 7861 ft 1 kts 174°
2026-04-14 05:33 -0.12353 -78.35832 7861 ft 0 kts 177°
2026-04-14 05:35 -0.12378 -78.35836 7862 ft 4 kts 189°
2026-04-14 05:35 -0.12410 -78.35840 7864 ft 7 kts 182°
2026-04-14 05:35 -0.12466 -78.35840 7867 ft 5 kts 179°
2026-04-14 05:36 -0.12512 -78.35839 7869 ft 11 kts 178°
2026-04-14 05:36 -0.12615 -78.35834 7874 ft 16 kts 177°
2026-04-14 05:36 -0.12691 -78.35799 7880 ft 8 kts 118°
2026-04-14 05:36 -0.12696 -78.35741 7884 ft 10 kts 85°
2026-04-14 05:37 -0.12690 -78.35664 7889 ft 10 kts 89°
2026-04-14 05:37 -0.12725 -78.35609 7895 ft 10 kts 152°
2026-04-14 05:37 -0.12832 -78.35597 7903 ft 20 kts 178°
2026-04-14 05:37 -0.12989 -78.35590 7913 ft 20 kts 177°
2026-04-14 05:38 -0.13117 -78.35586 7918 ft 15 kts 177°
2026-04-14 05:38 -0.13208 -78.35581 7922 ft 10 kts 176°
2026-04-14 05:38 -0.13276 -78.35578 7925 ft 15 kts 177°
2026-04-14 05:38 -0.13454 -78.35571 7932 ft 26 kts 177°
2026-04-14 05:39 -0.13623 -78.35561 7939 ft 21 kts 176°
2026-04-14 05:39 -0.13754 -78.35555 7947 ft 18 kts 177°
2026-04-14 05:39 -0.13879 -78.35551 7953 ft 16 kts 178°
2026-04-14 05:39 -0.14009 -78.35548 7959 ft 17 kts 178°
2026-04-14 05:40 -0.14125 -78.35543 7964 ft 18 kts 176°
2026-04-14 05:40 -0.14237 -78.35513 7971 ft 13 kts 124°
2026-04-14 05:40 -0.14249 -78.35491 7974 ft 0 kts 110°
2026-04-14 05:40 -0.14249 -78.35492 7974 ft 0 kts 111°
2026-04-14 05:41 -0.14253 -78.35477 7976 ft 4 kts 101°
2026-04-14 05:42 -0.14254 -78.35430 7980 ft 8 kts 81°
2026-04-14 05:42 -0.14236 -78.35388 7983 ft 6 kts 51°
2026-04-14 05:42 -0.14173 -78.35366 7983 ft 14 kts 358°
2026-04-14 05:42 -0.14110 -78.35369 7980 ft 0 kts 358°
2026-04-14 05:43 -0.14107 -78.35369 7980 ft 8 kts 358°
2026-04-14 05:44 -0.13819 -78.35381 7967 ft 73 kts 358°
2026-04-14 05:44 -0.13089 -78.35410 7929 ft 131 kts 358°
2026-04-14 05:44 -0.11999 -78.35455 7853 ft 180 kts 358°
2026-04-14 05:44 -0.10670 -78.35514 8157 ft 192 kts 358°
2026-04-14 05:45 -0.09327 -78.35571 8693 ft 198 kts 356°
2026-04-14 05:45 -0.07926 -78.35684 9205 ft 205 kts 355°
2026-04-14 05:45 -0.06489 -78.35903 9535 ft 219 kts 343°
2026-04-14 05:45 -0.04988 -78.36566 9609 ft 245 kts 332°
2026-04-14 05:46 -0.03405 -78.37378 9532 ft 271 kts 336°
2026-04-14 05:46 -0.01600 -78.38076 9545 ft 283 kts 341°
2026-04-14 05:46 0.00297 -78.38691 9547 ft 288 kts 342°
2026-04-14 05:46 0.02234 -78.39318 9556 ft 287 kts 342°
2026-04-14 05:47 0.04103 -78.39952 10010 ft 285 kts 341°
2026-04-14 05:47 0.05998 -78.40614 10728 ft 289 kts 341°
2026-04-14 05:47 0.07889 -78.41293 11430 ft 293 kts 339°
2026-04-14 05:47 0.09781 -78.42229 11467 ft 309 kts 324°
2026-04-14 05:48 0.11167 -78.43793 11438 ft 298 kts 297°
2026-04-14 05:48 0.11890 -78.45671 12042 ft 289 kts 287°
2026-04-14 05:48 0.12465 -78.47607 12758 ft 292 kts 288°
2026-04-14 05:48 0.13078 -78.49517 13459 ft 294 kts 289°
2026-04-14 05:49 0.13768 -78.51447 14154 ft 295 kts 291°
2026-04-14 05:49 0.14487 -78.53346 14802 ft 295 kts 291°
2026-04-14 05:49 0.15102 -78.55286 15445 ft 295 kts 277°
2026-04-14 05:49 0.15003 -78.57288 16093 ft 291 kts 252°
2026-04-14 05:50 0.14185 -78.59117 16672 ft 292 kts 235°
2026-04-14 05:50 0.12872 -78.60716 17005 ft 305 kts 222°
2026-04-14 05:50 0.11151 -78.61993 17340 ft 316 kts 203°
2026-04-14 05:50 0.08982 -78.62570 17672 ft 325 kts 180°
2026-04-14 05:51 0.06681 -78.62447 18017 ft 337 kts 172°
2026-04-14 05:51 0.04309 -78.62427 18302 ft 355 kts 188°
2026-04-14 05:51 0.01903 -78.63278 18619 ft 372 kts 208°
2026-04-14 05:51 -0.00233 -78.64777 19120 ft 380 kts 218°
2026-04-14 05:52 -0.02235 -78.66523 19624 ft 387 kts 220°
2026-04-14 05:52 -0.04249 -78.68338 20238 ft 389 kts 220°
2026-04-14 05:52 -0.06283 -78.70129 20792 ft 393 kts 219°
2026-04-14 05:52 -0.08364 -78.71913 21362 ft 396 kts 219°
2026-04-14 05:53 -0.10467 -78.73679 21909 ft 399 kts 218°
2026-04-14 05:53 -0.12611 -78.75453 22438 ft 402 kts 218°
2026-04-14 05:53 -0.14781 -78.77232 22996 ft 405 kts 218°
2026-04-14 05:53 -0.16975 -78.79019 23514 ft 409 kts 218°
2026-04-14 05:54 -0.19180 -78.80810 24059 ft 411 kts 218°
2026-04-14 05:54 -0.21466 -78.82664 24275 ft 417 kts 217°
2026-04-14 05:54 -0.23658 -78.84440 24254 ft 415 kts 217°
2026-04-14 05:54 -0.25858 -78.86224 24255 ft 405 kts 217°
2026-04-14 05:55 -0.28085 -78.88030 24290 ft 418 kts 217°
2026-04-14 05:55 -0.30382 -78.89891 24285 ft 435 kts 217°
2026-04-14 05:55 -0.32801 -78.91848 24269 ft 452 kts 217°
2026-04-14 05:55 -0.35267 -78.93843 24272 ft 468 kts 218°
2026-04-14 05:56 -0.37871 -78.95952 24249 ft 483 kts 218°
2026-04-14 05:56 -0.40465 -78.98052 24248 ft 485 kts 218°
2026-04-14 05:56 -0.43116 -79.00201 24262 ft 484 kts 218°
2026-04-14 05:56 -0.45712 -79.02306 24259 ft 483 kts 218°
2026-04-14 05:57 -0.48312 -79.04417 24302 ft 483 kts 218°
2026-04-14 05:57 -0.50932 -79.06546 24291 ft 484 kts 218°
2026-04-14 05:57 -0.53559 -79.08681 24274 ft 483 kts 218°
2026-04-14 05:57 -0.56179 -79.10766 24278 ft 484 kts 216°
2026-04-14 05:58 -0.58915 -79.12754 24224 ft 485 kts 212°
2026-04-14 05:58 -0.61834 -79.14490 24225 ft 482 kts 207°
2026-04-14 05:58 -0.64830 -79.16010 24240 ft 483 kts 204°
2026-04-14 05:58 -0.67861 -79.17415 24226 ft 483 kts 202°
2026-04-14 05:59 -0.70960 -79.18791 24215 ft 484 kts 202°
2026-04-14 05:59 -0.74048 -79.20147 24167 ft 483 kts 202°
2026-04-14 05:59 -0.77112 -79.21501 24129 ft 483 kts 202°
2026-04-14 05:59 -0.80190 -79.22877 24123 ft 482 kts 202°
2026-04-14 06:00 -0.83271 -79.24269 24106 ft 484 kts 202°
2026-04-14 06:00 -0.86326 -79.25663 24095 ft 483 kts 203°
2026-04-14 06:00 -0.89397 -79.27077 24108 ft 482 kts 203°
2026-04-14 06:00 -0.92421 -79.28476 23907 ft 474 kts 203°
2026-04-14 06:01 -0.95390 -79.29856 23541 ft 463 kts 203°
2026-04-14 06:01 -0.98287 -79.31207 23045 ft 456 kts 203°
2026-04-14 06:01 -1.01140 -79.32538 22487 ft 451 kts 203°
2026-04-14 06:01 -1.04000 -79.33871 21905 ft 447 kts 203°
2026-04-14 06:02 -1.06796 -79.35174 21329 ft 443 kts 203°
2026-04-14 06:02 -1.09578 -79.36469 20716 ft 441 kts 203°
2026-04-14 06:02 -1.12345 -79.37759 20127 ft 437 kts 203°
2026-04-14 06:02 -1.15116 -79.39050 19543 ft 434 kts 204°
2026-04-14 06:03 -1.17831 -79.40317 18947 ft 430 kts 204°
2026-04-14 06:03 -1.20527 -79.41576 18364 ft 426 kts 204°
2026-04-14 06:03 -1.23188 -79.42819 17791 ft 419 kts 204°
2026-04-14 06:04 -1.28263 -79.45180 16742 ft 387 kts 204°
2026-04-14 06:04 -1.30683 -79.46314 16199 ft 372 kts 204°
2026-04-14 06:04 -1.32983 -79.47392 15746 ft 358 kts 204°
2026-04-14 06:04 -1.35207 -79.48428 15240 ft 346 kts 204°
2026-04-14 06:05 -1.37348 -79.49424 14801 ft 335 kts 204°
2026-04-14 06:05 -1.39427 -79.50390 14355 ft 326 kts 205°
2026-04-14 06:05 -1.41481 -79.51344 13918 ft 329 kts 205°
2026-04-14 06:05 -1.43610 -79.52333 13475 ft 334 kts 205°
2026-04-14 06:06 -1.45694 -79.53303 12988 ft 331 kts 205°
2026-04-14 06:06 -1.47771 -79.54269 12593 ft 320 kts 205°
2026-04-14 06:06 -1.49761 -79.55196 12164 ft 311 kts 205°
2026-04-14 06:06 -1.51713 -79.56104 11791 ft 310 kts 205°
2026-04-14 06:07 -1.53674 -79.57014 11343 ft 309 kts 205°
2026-04-14 06:07 -1.55642 -79.57926 10986 ft 308 kts 205°
2026-04-14 06:07 -1.57595 -79.58832 10598 ft 308 kts 205°
2026-04-14 06:07 -1.59357 -79.59651 10181 ft 308 kts 205°
2026-04-14 06:08 -1.61295 -79.60552 9953 ft 301 kts 205°
2026-04-14 06:08 -1.63179 -79.61428 9703 ft 296 kts 205°
2026-04-14 06:08 -1.65052 -79.62302 9286 ft 298 kts 205°
2026-04-14 06:08 -1.66923 -79.63174 8898 ft 297 kts 205°
2026-04-14 06:09 -1.68801 -79.64049 8550 ft 294 kts 205°
2026-04-14 06:09 -1.70636 -79.64899 8212 ft 291 kts 205°
2026-04-14 06:09 -1.72452 -79.65794 7853 ft 291 kts 207°
2026-04-14 06:09 -1.74297 -79.66685 7466 ft 292 kts 205°
2026-04-14 06:10 -1.76141 -79.67518 7079 ft 292 kts 205°
2026-04-14 06:10 -1.77990 -79.68352 6749 ft 290 kts 205°
2026-04-14 06:10 -1.79839 -79.69196 6378 ft 289 kts 205°
2026-04-14 06:10 -1.81670 -79.70041 5980 ft 288 kts 206°
2026-04-14 06:11 -1.83471 -79.70881 5683 ft 288 kts 203°
2026-04-14 06:11 -1.85304 -79.71725 5284 ft 289 kts 205°
2026-04-14 06:11 -1.87114 -79.72586 4927 ft 287 kts 206°
2026-04-14 06:11 -1.88933 -79.73439 4546 ft 284 kts 205°
2026-04-14 06:12 -1.90688 -79.74251 4232 ft 273 kts 205°
2026-04-14 06:12 -1.92392 -79.75036 4028 ft 258 kts 206°
2026-04-14 06:12 -1.93943 -79.75839 3877 ft 244 kts 209°
2026-04-14 06:12 -1.95399 -79.76675 3679 ft 244 kts 211°
2026-04-14 06:13 -1.96829 -79.77526 3635 ft 231 kts 211°
2026-04-14 06:13 -1.98170 -79.78323 3606 ft 215 kts 211°
2026-04-14 06:13 -1.99426 -79.79060 3629 ft 198 kts 210°
2026-04-14 06:13 -2.00591 -79.79731 3630 ft 193 kts 209°
2026-04-14 06:14 -2.01781 -79.80391 3348 ft 198 kts 209°
2026-04-14 06:14 -2.02993 -79.81078 2976 ft 203 kts 210°
2026-04-14 06:14 -2.04229 -79.81790 2610 ft 201 kts 210°
2026-04-14 06:14 -2.05434 -79.82479 2232 ft 195 kts 209°
2026-04-14 06:15 -2.06555 -79.83115 1876 ft 179 kts 209°
2026-04-14 06:15 -2.07586 -79.83707 1605 ft 164 kts 209°
2026-04-14 06:15 -2.08565 -79.84268 1413 ft 160 kts 210°
2026-04-14 06:15 -2.09530 -79.84816 1217 ft 157 kts 210°
2026-04-14 06:16 -2.10479 -79.85362 1008 ft 155 kts 210°
2026-04-14 06:16 -2.11417 -79.85895 807 ft 155 kts 210°
2026-04-14 06:16 -2.12348 -79.86427 607 ft 153 kts 211°
2026-04-14 06:16 -2.13276 -79.86964 420 ft 152 kts 210°
2026-04-14 06:17 -2.14209 -79.87490 216 ft 152 kts 208°
2026-04-14 06:17 -2.15116 -79.88006 29 ft 143 kts 211°
2026-04-14 06:17 -2.15818 -79.88416 30 ft 81 kts 210°
2026-04-14 06:17 -2.16147 -79.88600 34 ft 40 kts 209°
2026-04-14 06:18 -2.16334 -79.88715 33 ft 17 kts 240°
2026-04-14 06:18 -2.16328 -79.88773 34 ft 5 kts 319°
2026-04-14 06:18 -2.16280 -79.88783 34 ft 13 kts
2026-04-14 06:18 -2.16190 -79.88734 35 ft 12 kts 31°
2026-04-14 06:19 -2.16131 -79.88702 36 ft 8 kts 31°
2026-04-14 06:19 -2.16080 -79.88671 35 ft 8 kts 30°
2026-04-14 06:19 -2.15996 -79.88622 34 ft 17 kts 31°
2026-04-14 06:19 -2.15888 -79.88560 33 ft 17 kts 31°
2026-04-14 06:20 -2.15785 -79.88502 32 ft 12 kts 29°
2026-04-14 06:20 -2.15731 -79.88471 31 ft 8 kts 30°
2026-04-14 06:20 -2.15679 -79.88448 31 ft 7 kts 354°
2026-04-14 06:20 -2.15646 -79.88471 31 ft 4 kts 333°
2026-04-14 06:21 -2.15627 -79.88482 32 ft 1 kts 324°
2026-04-14 06:21 -2.15620 -79.88488 32 ft 1 kts 307°
2026-04-14 06:21 -2.15618 -79.88491 32 ft 0 kts 304°
2026-04-14 06:21 -2.15616 -79.88495 32 ft 0 kts 303°